www.pogodaiklimat.ru

Погода и климат >> Архив погоды >> Россия >> Забайкальский край >> Могоча


АРХИВ ПОГОДЫ в Могоче

Время (UTC), дата Ветер
(напр.,м/с)
 
Видим.   Явления Облачность Т
(С)
Тd
(С)
f
(%)
Тe
(С)
Тes
(С)
Комфортность P
(гПа)
Po
(гПа)
Тmin
(С)
Tmax
(С)
R
(мм)
R24
(мм)
S
(см)
00 16.09 С 1 50 км 1/0
[Ci sp]
-1.1 -5.8 70 -3 -0 1013.3 937.4 -6.0
03 16.09 З 4 50 км 1/0
[Ci sp]
+8.8 -5.9 35 +6 +11 1009.3 936.3
06 16.09 З 2 50 км 8/4 1000 м
[Cu hum Ac trans]
+10.1 -6.7 30 +9 +12 1007.9 935.3
09 16.09 штиль 0 50 км 8/3 1000 м
[Cu hum Ac trans Cs]
+10.1 -5.8 32 +10 +11 1007.1 934.5
12 16.09 ЮВ 1 50 км 10/8 1000 м
[Cb calv Ac As]
+6.0 -2.6 54 +5 +5 1007.6 934.0 +11.9
15 16.09 СВ 2 50 км 10/10 600 м
[Cb calv]
+6.3 -1.4 58 +4 +4 1007.6 934.1
18 16.09 СВ 2 50 км 10/10 600 м
[Cb calv]
+2.8 +0.9 87 -0 -0 1010.0 935.4
21 16.09 С 2 н/о слаб. ливневой дождь 10/10 600 м
[Cb calv]
+1.2 0.0 92 -2 -2 1013.1 937.9
00 17.09 СЗ 2 50 км {ливн. осадки} 8/4 600 м
[Cb calv Ac lent Ci fib]
+2.1 -0.6 82 -1 -0 1015.2 940.1 +0.6 3
03 17.09 С 5-11
{12}
50 км 8/8 600 м
[Cb calv]
+6.1 -3.0 52 +2 +3 1015.5 941.4
06 17.09 С 7-13
{13}
50 км в посл. час ливневой снег 10/10 600 м
[Cb calv]
+5.4 -1.3 62 0 0 1016.9 942.5
09 17.09 СЗ 3
{13}
50 км {ливн. осадки} 8/5 600 м
[Cb calv Ac lent Ci sp]
+5.5 -2.1 58 +3 +3 1017.3 942.9
12 17.09 З 2 50 км {ливн. осадки} 9/5 600 м
[Cb calv Ac lent Ci ing]
+2.0 -2.2 74 -1 -1 1019.7 944.3 +7.7 0.4
15 17.09 СЗ 3 50 км 3/0
[Ac lent]
-1.4 -4.4 80 -6 -6 1020.9 944.4
18 17.09 ЮЗ 2 50 км ясно -2.4 -6.2 75 -6 -6 1022.6 945.7
21 17.09 штиль 0 50 км ясно -6.9 -7.9 93 -8 -8 1024.7 946.4
00 18.09 СЗ 1 50 км 1/0
[Cc]
-1.4 -5.3 75 -3 -1 1023.6 946.9 -7.4
03 18.09 С 3 50 км 5/4 1000 м
[Cu med, cong Ci fib]
+6.9 -6.9 37 +5 +8 1019.7 945.4
06 18.09 С 4 50 км 4/3 1000 м
[Cu med, cong Ci fib]
+9.2 -4.9 37 +7 +10 1017.2 943.7
09 18.09 СЗ 3 50 км 3/1 1000 м
[Cu med, cong Ac lent Ci sp]
+9.5 -4.5 37 +8 +8 1016.5 943.1
12 18.09 штиль 0 50 км 5/3 1000 м
[Cu med, cong Ac lent Ci fib]
+2.6 -2.3 70 +2 +2 1018.8 943.5 +10.0
15 18.09 ЮВ 1 50 км 5/3 1000 м
[Cu med, cong Ac lent Ci fib]
+2.1 -3.0 69 +1 +1 1018.4 943.0
18 18.09 штиль 0 50 км 4/0
[Ac lent Ci fib]
-2.3 -3.7 90 -4 -4 1018.8 942.3
21 18.09 штиль 0 50 км 3/0
[Ci fib]
-4.2 -5.1 93 -5 -5 1018.7 941.6
00 19.09 штиль 0 50 км 6/0
[Ci fib]
+0.3 -2.8 80 -1 +2 1016.9 941.1 -4.4
03 19.09 В 1 50 км 10/0
[Ci fib]
+10.6 -0.4 46 +11 +17 1011.9 939.2
06 19.09 ЮЗ 5 50 км 10/4 600 м
[Cb calv Ac trans Cs]
+16.7 +2.5 38 +16 +17 1008.0 937.1
09 19.09 СЗ 6
{12}
50 км 10/8 600 м
[Cb calv As op]
+12.0 +5.2 63 +9 +9 1010.8 938.6
12 19.09 штиль 0 50 км {ливн. осадки} 10/8 600 м
[Cb calv As op Cs]
+5.7 +4.8 94 +5 +5 1013.3 939.3 +16.9 0.4
15 19.09 СЗ 1 50 км 10/0
[Ac As Cs]
+3.2 +2.9 98 +1 +1 1014.6 939.8
18 19.09 СЗ 1 50 км 10/0
[Cs]
+5.4 -1.1 63 +5 +5 1015.0 940.8
21 19.09 С 4 50 км 10/8 600 м
[Cb calv Cs]
+4.2 0.0 74 0 0 1018.7 943.9
00 20.09 С 2 50 км 10/8 600 м
[Cb calv Ac trans]
+4.1 -2.3 63 +2 +2 1021.8 946.8 +2.8
03 20.09 СЗ 4 50 км 9/6 600 м
[Cu med, cong Ci ing]
+6.6 -1.9 55 +3 +5 1022.2 947.7
06 20.09 СЗ 4
{10}
50 км 10/8 600 м
[Cu med, cong Cs]
+7.7 -2.9 47 +5 +6 1022.1 947.9
09 20.09 В 1 50 км 3/0
[Ci fib]
+9.1 -2.5 44 +9 +10 1021.1 947.3
12 20.09 штиль 0 50 км ясно -0.1 -2.7 83 -1 -1 1024.3 947.9 +10.4
15 20.09 СЗ 1 50 км ясно -2.8 -3.6 94 -5 -5 1025.0 947.8
18 20.09 штиль 0 50 км ясно -5.5 -6.5 93 -7 -7 1024.9 947.0
21 20.09 штиль 0 50 км 6/0
[As op Cs]
-5.5 -6.3 94 -7 -7 1024.2 946.3
00 21.09 штиль 0 50 км 10/0
[As trans Cs]
-1.9 -3.2 91 -3 -2 1023.0 946.2 -5.7
03 21.09 В 1 50 км 8/0
[Ac lent Ci fib]
+11.0 +1.4 52 +11 +16 1017.8 944.8
06 21.09 З 4 50 км 8/1 1000 м
[Cu hum Cs]
+19.6 +3.7 35 +20 +23 1014.1 943.4
09 21.09 СЗ 2 50 км 5/0
[Ac lent Ci fib]
+18.8 +3.5 36 +20 +20 1014.8 943.9
12 21.09 штиль 0 50 км ясно +7.3 +2.5 72 +7 +7 1019.1 945.1 +20.3
15 21.09 штиль 0 50 км ясно +2.4 +0.5 87 +1 +1 1020.9 945.5
18 21.09 штиль 0 50 км ясно -0.9 -1.8 94 -2 -2 1021.6 945.2
21 21.09 штиль 0 50 км ясно -2.3 -2.8 96 -4 -4 1021.7 944.9
00 22.09 С 1 50 км 1/0
[Ci fib]
+2.6 -0.0 83 +1 +3 1020.1 944.8 -3.1
03 22.09 В 1 50 км ясно +17.0 +5.8 48 +18 +26 1013.9 942.7
06 22.09 З 4 50 км 10/1 1000 м
[Cu hum Cc]
+24.8 +5.7 29 +24 +27 комфорт 1009.0 939.9
09 22.09 СЗ 5
{10}
50 км 10/8 1000 м
[Cb calv Cs]
+23.0 +4.2 29 +23 +23 комфорт 1009.1 939.6
12 22.09 С 2
{10}
50 км в посл. час ливневой дождь 10/8 600 м
[Cb calv Ci sp]
+12.3 +8.5 78 +11 +11 1015.2 942.8 +25.3 1
15 22.09 С 2
{10}
50 км 10/8 600 м
[Cb calv Cs]
+10.6 +3.5 61 +10 +10 1018.2 945.1
18 22.09 СЗ 3 50 км 8/5 600 м
[Cb calv Cs]
+6.7 +2.9 77 +4 +4 1020.7 946.5
21 22.09 СЗ 3 50 км 8/0
[Ac lent]
+5.4 +2.0 79 +2 +2 1023.0 948.2

 

Местоположение метеостанции Могоча (Забайкальский край, Россия): широта 53.75 долгота 119.70 высота над уровнем моря 625 м.

В архиве по умолчанию представлена погода в Могоче за последнюю неделю. Архивные данные за месяц целиком и за предыдущие месяцы, начиная с января 2011 года, Вы можете получить, выбрав интересующий диапазон дат из раскрывающегося списка и нажав кнопку "Ввод!".


*Определитесь, кто Вы:
робот инопланетянин человек

Внимание! Время в таблицах - всемирное. Для получения местного времени необходимо прибавить поправку, которая равна 9 ч.

Смотрите также архив погоды в соседних городах и на ближайших метеорологических станциях:

Погода в Ксеньевской (Забайкальский край, Россия) (70 км)
Погода в Амазаре (Забайкальский край, Россия) (73 км)
Погода в Тупике (Забайкальский край, Россия) (77 км)
Погода в Урюпино (Забайкальский край, Россия) (113 км)
Погода в Покровке (Забайкальский край, Россия) (127 км)
Погода в Усть-Карске (Забайкальский край, Россия) (131 км)
Погода в Ерофей Павловиче (Амурская область, Россия) (146 км)
Погода в Игнасино (Амурская область, Россия) (181 км)
Погода в Средней Олекме (Забайкальский край, Россия) (194 км)
Погода в Сретенске (Забайкальский край, Россия) (216 км)

Пояснения к столбцам:

Ветер - указаны скорость ветра в м/с - средняя за 10 мин, порывы в срок и между сроками (в фигурных скобках) и направление, откуда дует ветер: С - северный, СВ - северо-восточный, В - восточный, ЮВ - юго-восточный, Ю - южный, ЮЗ - юго-западный, З - западный, СЗ - северо-западный.
Видимость - горизонтальная дальность видимости в метрах или километрах. При видимости от 1 до 10 км при отсутствии осадков обычно наблюдается дымка, при ухудшении видимости до 1 км и менее - туман. В сухую погоду видимость может ухудшаться дымом, пылью или мглою.
Явления - указаны атмосферные явления, наблюдавшиеся в срок или в последний час перед сроком; фигурными скобками обозначены явления, наблюдавшиеся между сроками (за 1-3 часа до срока); квадратными скобками обозначены град или гололедные отложения с указанием их диаметра в мм.
Облачность - указаны через наклонную черту общая и нижняя облачность в баллах и высота нижней границы облаков в метрах; квадратными скобками обозначены формы облаков: Ci - перистые, Cs - перисто-слоистые, Cc - перисто-кучевые, Ac - высококучевые, As - высокослоистые, Sc - слоисто-кучевые, Ns - слоисто-дождевые, Cu - кучевые, Cb - кучево-дождевые. Подробнее классификацию облаков см. в Атласе облаков (PDF).
T - Температура воздуха - температура, измеренная на высоте 2 м над землей.
Td - Температура точки росы - температура, при понижении до которой содержащийся в воздухе водяной пар достигнет насыщения.
f - Относительная влажность воздуха - влажноcть воздуха, измеренная на высоте 2 м над землей.
Te - Эффективная температура - температура, которую ощущает одетый по сезону человек в тени. Характеристика душности погоды. При расчете учитывается влияние влажности воздуха и скорости ветра на теплоощущения человека.
Tes - Эффективная температура на солнце - температура, которую ощущает человек, с поправкой на солнечный нагрев. Характеристика знойности погоды. Зависит от высоты солнца над горизонтом, облачности и скорости ветра. Ночью, в пасмурную погоду, а также при ветре 12 м/с и более поправка равна нулю.
P - Атмосферное давление - приведенное к уровню моря атмосферное давление.
Po - Атмосферное давление - измеренное на уровне метеостанции атмосферное давление.
Tmin - Минимальная температура - минимум температуры воздуха на высоте 2 м над землей.
Tmax - Максимальная температура - максимум температуры воздуха на высоте 2 м над землей.
R - Количество осадков - Количество выпавших осадков за период времени, мм. При наведении курсора мыши на число - период времени, за который выпало указанное количество осадков.
R24 - Количество осадков - Количество выпавших осадков за 24 часа, мм.
S - Снежный покров - Высота снежного покрова, см. При наведении курсора мыши на число - состояние снежного покрова и степень покрытия местности в баллах.